Weather in Kichmensky Gorodok

Russia / Vologda Oblast     59°59′31″N   45°48′08″E
temp.,
°C
wind,
m/s
gust,
m/s
humid.,
%
clouds,
%
prec.,
mm/h
press.,
hPa
HPBL,
m
31 july, sat
sat3100:00+15sw239386 0.0 100248
03:00+16s229065 0.0 100045
06:00+16wsw3997100 1.7 1000386
09:00+16s2398100 4.9 999170
12:00+18ssw389361 1.4 999559
15:00+24w594812 1.6 9982163
18:00+19nw4117099 0.1 999596
21:00+14sw24936 0.2 100077
1 august, sun
sun100:00+13sw399697 0.0 1001232
03:00+13wsw412915 0.1 1002602
06:00+14w4108774 0.0 1004590
09:00+17w467460 0.0 1006739
12:00+19w476487 0.0 10071056
15:00+23w5847100 0.0 10072112
18:00+21s1166100 0.0 100735
21:00+16s277961 0.1 1007124
2 august, mon
mon200:00+14ssw289730 0.9 1007167
03:00+14ssw399777 0.9 1007238
06:00+15sw389799 0.0 1008309
09:00+19wsw3683100 0.0 1008542
12:00+23wsw4754100 0.0 10091266
15:00+26wsw584563 0.0 10082370
18:00+22s22645 0.0 100723
21:00+18sse2477100 0.0 100768
3 august, tue
tue300:00+16s289492 0.2 1006157
03:00+16sse31097100 0.3 1005284
06:00+18sse31092100 0.0 1004341
09:00+24s586590 0.0 1002666
12:00+25ssw586393 0.0 10021078
15:00+23sw5973100 0.5 1002860
18:00+21wsw4877100 0.5 1003816
21:00+17sw249794 0.5 100586
4 august, wed
wed400:00+15wsw1196100 0.0 100611
03:00+15nw1192100 0.0 100612
06:00+16nw1187100 0.0 100764
09:00+19wnw237152 0.0 1008549
12:00+22w355633 0.0 10091388
15:00+24wsw454296 0.1 10092349
18:00+20wsw386499 0.0 1011354
21:00+17wnw2766100 0.0 1012249